Wind_Speed
1 1 1 1 1 1 1 1 1 1 1 1 2 2 1 1 2 2 1 2 2 2 2 2 3 3 3 2 2 3 2 2 2 2 3 4 3 3 4 4 4 4 5
1 1 1 0 0 1 1 1 1 1 1 1 2 2 1 2 2 2 2 2 2 2 3 3 3 3 3 3 3 3 3 3 3 3 3 4 4 4 4 4 4 4 5
1 1 1 0 1 1 2 2 2 1 2 2 2 2 2 2 2 2 2 2 2 2 2 1 2 3 3 4 4 5 4 4 3 3 4 4 4 4 5 5 5 5 5
1 1 1 0 1 1 1 1 2 2 2 3 2 2 2 1 1 1 2 2 1 1 1 1 2 2 3 3 4 5 5 5 5 5 5 5 5 4 4 4 4 4 5
1 2 1 1 1 1 1 1 2 2 3 3 2 2 2 2 2 2 2 2 2 1 2 2 2 2 3 3 4 4 5 5 6 6 5 5 5 5 5 5 5 5 6
2 2 2 1 1 1 2 2 2 2 3 3 2 2 2 3 3 3 3 3 3 3 3 3 3 3 3 4 4 4 5 6 6 6 6 6 5 5 5 5 5 5 6
3 2 2 2 2 2 2 2 2 3 3 3 3 3 3 3 3 3 4 4 4 5 5 4 4 4 4 4 5 5 5 6 6 7 7 6 6 6 6 6 6 6 7
3 3 3 3 3 3 3 3 4 4 4 4 4 4 4 4 4 5 4 4 5 6 5 5 5 4 5 5 6 5 6 6 6 6 6 6 7 7 7 7 7 7 7
4 4 4 4 4 4 5 5 5 5 5 5 5 5 5 5 6 6 6 5 5 6 6 6 6 6 6 6 6 7 6 7 7 7 7 7 7 8 8 8 8 7 8
4 5 5 5 6 6 6 6 6 6 6 6 7 7 7 7 7 7 7 7 7 7 7 7 7 7 7 7 7 8 7 7 7 7 7 7 8 8 8 8 8 8 8
5 6 6 6 7 7 7 7 7 8 8 8 8 8 8 8 8 8 8 8 8 8 8 8 8 8 8 8 8 8 8 8 8 8 7 7 7 8 8 9 9 9 9
6 7 7 7 8 8 8 8 8 8 8 8 8 8 8 9 9 9 9 9 9 9 9 9 9 10 10 9 9 9 9 9 9 8 7 7 8 8 8 9 9 10 10
7 8 8 9 9 9 8 8 8 8 9 9 8 8 9 9 9 9 9 10 10 10 10 10 10 10 10 9 10 10 9 9 8 8 8 8 8 8 9 9 9 9 10
8 8 9 9 10 9 9 9 9 10 10 10 10 10 10 10 10 11 10 11 11 11 10 10 10 10 10 10 10 10 10 10 9 9 9 9 9 9 9 9 9 9 9
8 9 9 9 10 10 10 10 10 10 11 11 11 11 11 11 11 11 11 11 11 11 11 11 11 10 9 9 10 10 10 10 9 9 9 9 9 9 9 9 10 9 9
9 9 10 10 9 9 10 10 10 10 11 11 11 11 11 12 12 12 12 12 12 12 11 11 11 11 10 10 10 10 10 10 10 9 9 9 9 9 10 10 10 10 10
10 10 9 9 9 10 10 10 10 11 11 12 12 12 12 12 13 13 14 13 12 12 11 11 11 11 11 10 10 10 11 10 10 10 10 10 10 10 10 10 10 10 10
10 10 10 11 10 10 11 11 11 11 12 12 12 12 12 13 13 14 13 12 12 12 12 11 11 11 11 11 11 11 11 11 11 11 11 11 10 10 10 10 10 10 10
10 11 12 12 12 12 12 12 12 12 12 12 12 13 13 13 13 13 13 13 12 12 12 12 12 11 11 11 11 11 11 11 11 11 11 11 11 11 11 11 11 10 11
12 12 13 13 13 13 13 13 13 13 13 13 13 13 13 13 13 13 13 13 13 13 13 13 13 12 12 12 12 12 12 12 12 12 12 12 12 12 12 12 12 12 11
13 13 14 14 14 14 14 14 13 14 14 14 13 13 14 13 14 13 14 14 14 13 14 14 14 13 12 13 13 13 13 13 12 13 13 13 13 13 12 12 12 12 12
14 14 15 15 15 15 15 15 14 14 14 15 14 14 14 15 15 14 14 15 14 14 14 14 15 14 13 13 13 13 14 14 14 14 14 14 14 14 13 13 13 13 13
14 15 16 16 16 16 15 15 15 15 15 15 15 15 15 15 15 15 15 15 14 14 14 15 15 14 14 13 13 14 14 14 14 15 14 14 14 15 14 14 13 13 14
16 16 17 17 17 17 17 17 17 16 16 16 16 16 16 16 16 15 15 15 15 15 15 15 15 15 15 14 15 15 15 15 15 16 16 15 15 15 15 15 15 14 14
17 17 17 17 18 18 18 19 19 18 18 17 17 17 17 16 15 15 15 15 16 15 15 15 16 16 16 16 16 16 16 16 16 16 15 16 16 16 16 15 15 15 15
18 18 18 18 18 19 19 20 20 19 19 18 18 18 18 18 17 17 16 16 16 16 16 16 17 17 17 17 17 18 17 17 17 17 16 16 16 16 16 16 16 16 17
Wind_Direction
112 105 100 77 72 59 43 31 14 352 348 341 341 342 332 318 296 284 264 259 255 269 275 271 254 237 222 212 220 223 229 231 247 246 247 247 242 254 253 246 254 266 266
190 138 132 152 274 336 326 330 320 327 321 315 315 316 308 300 299 281 270 264 270 276 277 281 267 247 236 233 239 250 253 250 245 246 249 251 257 262 259 255 261 276 274
185 176 151 184 292 307 309 320 317 314 323 314 309 316 312 284 273 268 262 254 270 282 270 268 262 265 260 254 259 263 255 261 263 267 259 255 262 266 265 267 270 274 273
170 178 172 309 319 314 319 313 312 318 330 325 311 317 322 289 258 276 289 279 288 304 292 278 269 272 271 261 265 263 257 258 264 272 269 262 265 271 269 264 267 272 274
194 199 219 262 310 310 310 326 321 340 339 333 326 317 301 277 288 286 296 287 303 315 303 288 275 280 278 280 282 269 263 260 264 273 278 276 267 268 271 271 272 271 271
223 216 219 239 283 299 287 293 308 314 324 329 320 302 291 289 290 296 300 285 283 300 306 293 282 282 281 284 285 283 271 260 266 270 273 273 268 271 271 279 284 280 275
236 234 230 233 252 272 281 284 293 297 303 306 303 302 299 296 301 310 291 284 291 297 293 289 281 283 279 282 286 285 276 265 268 272 266 269 270 272 279 284 286 287 285
251 250 252 257 259 265 273 281 289 291 291 291 291 290 294 286 284 291 297 292 297 299 295 289 287 287 286 285 284 284 282 276 278 275 271 272 272 276 280 283 284 287 288
260 260 262 265 263 268 274 278 286 289 287 286 285 284 286 286 283 286 286 289 294 294 294 291 288 285 284 284 283 281 283 281 278 275 275 275 277 277 276 280 285 289 289
262 266 268 273 274 274 276 275 279 281 282 285 285 283 281 280 280 282 283 283 286 292 293 296 297 289 282 282 284 286 284 282 278 275 273 275 279 278 275 278 282 286 286
270 271 273 277 279 276 276 277 277 278 281 284 284 283 282 280 279 281 282 282 284 286 291 293 298 291 285 285 285 287 286 283 280 275 273 274 278 277 276 277 280 282 286
272 274 275 276 278 278 277 276 276 279 283 286 286 286 284 281 280 281 281 282 284 285 287 288 290 288 286 283 283 286 287 283 277 269 268 273 278 278 276 278 280 280 284
271 274 276 277 278 276 275 276 275 277 282 285 285 283 284 283 281 281 281 281 282 285 287 287 285 284 283 279 278 283 285 282 275 267 268 271 275 276 277 281 283 282 285
274 274 276 278 277 276 273 274 275 276 279 281 279 278 281 283 282 281 281 283 285 287 287 286 283 279 279 278 275 278 278 275 274 269 270 271 272 273 276 280 284 285 287
278 278 278 278 276 276 274 273 274 277 278 277 278 280 281 281 283 282 279 278 280 281 283 283 280 276 276 276 274 274 273 273 272 271 269 270 272 274 276 280 284 286 288
277 276 279 280 277 274 274 275 274 276 279 277 277 278 280 280 281 283 283 281 280 280 280 279 276 275 275 272 271 271 270 272 273 274 270 272 275 277 279 282 284 285 285
278 276 278 280 280 278 277 279 279 279 279 279 278 277 278 280 282 283 282 282 281 279 278 276 275 276 275 272 268 268 268 269 270 272 275 276 276 277 279 282 285 285 285
279 274 275 277 279 278 278 281 282 282 280 279 279 276 275 276 279 283 282 281 280 279 279 278 275 275 274 271 268 266 267 269 270 273 275 275 273 277 280 281 281 279 283
277 274 272 273 276 277 279 281 281 280 279 280 280 278 276 276 277 279 279 280 281 279 280 279 276 274 274 272 269 266 268 270 270 272 274 275 274 276 278 279 277 275 277
276 275 274 275 275 276 279 280 279 278 277 278 280 278 276 276 276 276 277 279 279 278 278 276 275 275 274 273 270 267 268 269 269 271 274 275 275 277 277 277 278 278 279
279 276 276 278 277 276 275 276 277 276 275 277 278 281 282 282 279 277 276 277 277 276 275 274 274 273 272 271 268 267 267 267 267 269 273 273 273 275 279 280 282 282 282
278 278 276 276 276 276 274 273 274 274 272 272 273 278 280 281 282 281 280 278 276 274 273 273 274 270 269 268 265 264 264 265 265 266 271 273 274 276 278 281 282 283 286
280 280 279 277 276 276 275 274 273 273 273 272 273 274 276 278 279 278 276 275 274 274 274 275 274 270 268 267 266 265 265 266 267 268 270 270 271 273 275 277 280 283 285
279 280 281 279 277 275 275 274 274 274 273 273 273 273 274 275 275 277 275 273 273 272 272 273 270 269 268 268 268 268 269 268 267 267 268 268 268 269 271 275 278 281 282
277 280 281 281 278 275 273 273 273 272 271 272 273 273 273 273 276 278 278 276 275 274 273 272 272 269 268 269 269 268 269 271 269 267 269 270 270 270 271 273 276 276 279
277 278 278 278 279 276 273 271 270 270 270 270 270 271 272 272 274 276 275 276 275 275 273 272 270 269 270 271 272 272 272 273 272 273 272 273 274 274 274 275 276 277 276
Height
5879 5878 5878 5878 5878 5878 5878 5879 5879 5879 5879 5878 5878 5878 5877 5877 5877 5876 5876 5876 5876 5876 5876 5876 5875 5875 5875 5875 5875 5875 5875 5875 5875 5875 5874 5874 5874 5874 5874 5873 5873 5873 5873
5879 5878 5878 5878 5878 5879 5879 5879 5879 5879 5879 5878 5878 5878 5877 5877 5876 5876 5876 5876 5876 5876 5876 5875 5875 5874 5875 5875 5875 5874 5874 5874 5874 5874 5874 5873 5873 5873 5873 5872 5872 5872 5872
5878 5878 5878 5878 5878 5878 5879 5879 5878 5879 5878 5878 5878 5877 5877 5876 5875 5875 5875 5875 5875 5875 5875 5874 5874 5874 5874 5874 5874 5874 5874 5873 5873 5873 5873 5873 5872 5872 5872 5872 5871 5871 5871
5878 5878 5878 5878 5878 5878 5878 5878 5878 5878 5878 5878 5877 5877 5877 5876 5875 5875 5875 5875 5875 5875 5874 5874 5874 5874 5874 5874 5873 5873 5873 5873 5873 5872 5872 5872 5872 5871 5871 5871 5870 5870 5870
5878 5878 5878 5878 5878 5878 5878 5878 5878 5878 5878 5877 5877 5877 5876 5876 5876 5875 5875 5875 5875 5874 5874 5874 5874 5873 5873 5873 5872 5872 5872 5872 5872 5871 5871 5871 5870 5870 5870 5869 5869 5869 5868
5877 5877 5877 5878 5878 5878 5878 5878 5878 5878 5877 5877 5877 5877 5876 5876 5876 5875 5875 5874 5874 5874 5874 5873 5873 5873 5872 5872 5872 5871 5871 5871 5871 5870 5870 5869 5869 5869 5869 5868 5868 5868 5867
5877 5876 5877 5877 5877 5877 5877 5877 5877 5877 5877 5877 5877 5876 5876 5876 5875 5875 5874 5874 5874 5874 5873 5873 5872 5872 5872 5871 5871 5870 5870 5870 5869 5869 5869 5868 5868 5867 5867 5867 5867 5866 5865
5876 5876 5876 5876 5876 5877 5877 5877 5877 5876 5876 5876 5876 5876 5876 5875 5875 5874 5874 5874 5873 5873 5872 5872 5872 5871 5871 5870 5870 5869 5869 5868 5868 5868 5867 5867 5867 5866 5866 5866 5865 5864 5864
5875 5875 5875 5875 5875 5876 5876 5876 5875 5875 5875 5875 5875 5875 5874 5874 5874 5873 5873 5872 5872 5872 5871 5871 5870 5870 5869 5869 5868 5868 5868 5867 5867 5866 5866 5866 5865 5865 5864 5864 5864 5863 5862
5874 5874 5874 5874 5874 5874 5874 5874 5874 5874 5874 5873 5873 5873 5873 5873 5872 5872 5872 5871 5871 5870 5870 5870 5869 5869 5868 5867 5867 5866 5866 5865 5865 5865 5864 5864 5864 5863 5863 5862 5862 5861 5861
5872 5873 5873 5873 5873 5873 5873 5872 5872 5872 5872 5872 5871 5871 5871 5871 5871 5870 5870 5869 5869 5869 5868 5868 5867 5867 5866 5866 5865 5865 5864 5863 5863 5863 5862 5862 5862 5862 5861 5861 5860 5860 5859
5871 5871 5871 5871 5871 5871 5871 5871 5871 5870 5870 5870 5870 5869 5869 5869 5869 5868 5868 5867 5867 5867 5866 5866 5865 5865 5864 5864 5863 5863 5862 5861 5861 5860 5860 5860 5860 5860 5859 5859 5858 5858 5857
5870 5870 5869 5869 5869 5869 5869 5869 5869 5869 5868 5868 5868 5867 5867 5867 5866 5866 5866 5865 5865 5864 5864 5864 5863 5863 5862 5861 5861 5861 5860 5859 5858 5858 5858 5858 5858 5858 5857 5857 5856 5856 5855
5868 5868 5868 5867 5867 5867 5867 5867 5867 5866 5866 5866 5866 5865 5865 5864 5864 5864 5864 5863 5863 5862 5862 5861 5861 5860 5860 5859 5859 5858 5858 5857 5857 5857 5856 5856 5856 5855 5855 5854 5854 5853 5852
5866 5866 5865 5865 5865 5865 5864 5864 5864 5864 5864 5863 5863 5862 5862 5862 5862 5861 5861 5860 5860 5860 5859 5859 5858 5858 5857 5857 5857 5856 5856 5855 5855 5855 5854 5854 5854 5853 5853 5852 5852 5851 5850
5863 5863 5863 5863 5863 5862 5862 5862 5861 5861 5861 5861 5860 5860 5859 5859 5859 5858 5858 5858 5857 5857 5857 5856 5856 5855 5855 5855 5854 5854 5853 5853 5853 5852 5852 5852 5852 5851 5851 5850 5849 5848 5848
5861 5861 5861 5860 5860 5859 5859 5859 5858 5858 5858 5858 5857 5857 5856 5856 5855 5855 5855 5854 5854 5854 5854 5853 5853 5852 5852 5852 5852 5851 5851 5851 5850 5850 5850 5850 5849 5849 5848 5848 5847 5846 5845
5858 5858 5858 5857 5857 5857 5857 5856 5855 5855 5855 5854 5854 5854 5853 5853 5852 5852 5852 5851 5851 5851 5851 5850 5850 5850 5849 5849 5849 5849 5849 5848 5848 5848 5847 5847 5846 5846 5846 5845 5844 5843 5842
5855 5855 5855 5854 5854 5854 5853 5853 5852 5852 5852 5851 5851 5850 5850 5850 5849 5849 5849 5848 5848 5848 5848 5847 5847 5847 5847 5846 5846 5846 5846 5846 5845 5845 5845 5844 5844 5843 5843 5842 5841 5840 5839
5852 5852 5851 5851 5851 5850 5850 5850 5849 5849 5848 5848 5848 5847 5846 5846 5846 5846 5845 5845 5845 5845 5844 5844 5844 5844 5844 5843 5843 5843 5843 5843 5843 5842 5842 5841 5841 5840 5840 5839 5838 5837 5836
5849 5848 5848 5848 5847 5847 5847 5846 5846 5845 5845 5844 5844 5843 5843 5842 5842 5842 5842 5841 5841 5841 5841 5840 5840 5840 5840 5840 5840 5840 5840 5839 5839 5839 5838 5838 5838 5837 5837 5836 5835 5834 5833
5845 5845 5844 5844 5844 5843 5843 5843 5842 5841 5841 5841 5840 5840 5839 5839 5838 5838 5837 5837 5837 5837 5837 5837 5836 5836 5836 5836 5836 5836 5836 5836 5836 5835 5835 5835 5834 5834 5833 5833 5832 5831 5830
5841 5841 5840 5840 5840 5839 5839 5839 5838 5838 5837 5837 5837 5836 5836 5835 5834 5834 5834 5833 5833 5833 5833 5833 5833 5833 5833 5833 5832 5833 5832 5832 5832 5832 5831 5831 5830 5830 5830 5829 5828 5828 5827
5837 5837 5836 5836 5835 5835 5835 5834 5834 5834 5834 5833 5833 5832 5832 5831 5831 5830 5830 5829 5829 5829 5829 5829 5829 5829 5829 5829 5829 5828 5828 5828 5828 5828 5827 5827 5826 5826 5825 5825 5825 5824 5823
5833 5832 5831 5831 5831 5830 5830 5830 5829 5829 5829 5828 5828 5828 5827 5827 5826 5826 5826 5825 5825 5825 5825 5825 5824 5825 5825 5825 5825 5824 5824 5824 5823 5823 5823 5822 5822 5821 5821 5821 5820 5820 5819
5828 5827 5827 5826 5825 5825 5825 5824 5824 5824 5824 5823 5823 5823 5822 5822 5822 5821 5821 5821 5821 5820 5820 5820 5820 5820 5820 5820 5820 5820 5819 5819 5819 5818 5818 5818 5817 5817 5817 5816 5816 5815 5814